GW0414 Weather Reports


Display with metric or nautical units.
time (UTC)temp
F
wind
direction
speed
MPH
gust
MPH
rain 1hr
in
rain 24hr
in
rain mn
in
humidity
%
barometer
mb
20260506223837 45 3 5.0 9.0 0.00 0.00 0.00 92 1013.8
20260506222837 45 19 6.0 10.0 0.00 0.00 0.00 92 1013.5
20260506220837 46 4 8.0 9.0 0.00 0.00 0.00 91 1013.4
20260506215836 46 7 7.0 10.0 0.00 0.00 0.00 90 1013.4
20260506214836 47 0 8.0 12.0 0.00 0.00 0.00 89 1013.4
20260506213839 47 13 9.0 13.0 0.00 0.00 0.00 89 1013.3
20260506213323 47 12 7.0 11.0 0.00 0.00 0.00 88 1013.1
20260506212313 48 9 9.0 13.0 0.00 0.00 0.00 87 1013.2
20260506205838 49 18 6.0 12.0 0.00 0.00 0.00 83 1012.8
20260506203837 49 1 8.0 12.0 0.00 0.00 0.00 80 1012.8
20260506202320 50 357 7.0 12.0 0.00 0.00 0.00 77 1012.8
20260506201318 50 7 7.0 12.0 0.00 0.00 0.00 78 1012.7
20260506195836 50 9 9.0 11.0 0.00 0.00 0.00 79 1012.4
20260506194837 51 9 8.0 11.0 0.00 0.00 0.00 77 1012.6
20260506193837 51 18 5.0 11.0 0.00 0.00 0.00 77 1012.3
20260506192837 51 14 6.0 12.0 0.00 0.00 0.00 77 1012.1
20260506191837 51 0 8.0 11.0 0.00 0.00 0.00 76 1012.0
20260506190837 52 4 8.0 12.0 0.00 0.00 0.00 73 1011.9
20260506190325 52 5 8.0 12.0 0.00 0.00 0.00 73 1011.6
20260506184836 53 13 9.0 14.0 0.00 0.00 0.00 73 1011.7
20260506183837 53 8 9.0 15.0 0.00 0.00 0.00 73 1011.5
20260506182837 53 4 10.0 14.0 0.00 0.00 0.00 72 1011.6
20260506180837 54 17 10.0 18.0 0.00 0.00 0.00 73 1011.3
20260506180315 54 5 10.0 17.0 0.00 0.00 0.00 72 1011.1
20260506175322 54 10 9.0 14.0 0.00 0.00 0.00 71 1011.0
20260506173837 54 355 9.0 13.0 0.00 0.00 0.00 72 1010.8
20260506172836 54 17 6.0 10.0 0.00 0.00 0.00 72 1010.8
20260506171837 54 35 5.0 5.0 0.00 0.00 0.00 72 1010.6
20260506170837 54 116 1.0 5.0 0.00 0.00 0.00 70 1010.8
20260506165839 54 17 1.0 10.0 0.00 0.00 0.00 70 1010.8
20260506165315 55 75 6.0 11.0 0.00 0.00 0.00 68 1010.7
20260506163836 55 100 2.0 8.0 0.00 0.00 0.00 68 1010.8
20260506162836 55 75 5.0 5.0 0.00 0.00 0.00 68 1010.6
20260506161838 55 66 3.0 6.0 0.00 0.00 0.00 65 1010.5
20260506160836 55 39 4.0 9.0 0.00 0.00 0.00 64 1010.5
20260506155850 56 54 2.0 8.0 0.00 0.00 0.00 62 1010.5
20260506154836 56 53 6.0 11.0 0.00 0.00 0.00 61 1010.4
20260506153838 56 77 10.0 17.0 0.00 0.00 0.00 60 1010.6
20260506153314 56 68 3.0 12.0 0.00 0.00 0.00 60 1010.3
20260506151836 56 23 3.0 13.0 0.00 0.00 0.00 58 1010.4
20260506150836 56 78 4.0 16.0 0.00 0.00 0.00 56 1010.4
20260506145838 56 83 3.0 13.0 0.00 0.00 0.00 54 1010.2
20260506144836 56 77 8.0 13.0 0.00 0.00 0.00 52 1010.2
20260506143837 56 80 7.0 12.0 0.00 0.00 0.00 53 1010.3
20260506143318 56 126 4.0 12.0 0.00 0.00 0.00 54 1010.1
20260506141838 57 64 9.0 13.0 0.00 0.00 0.00 53 1010.3
20260506141310 57 71 4.0 13.0 0.00 0.00 0.00 52 1010.0
20260506135837 57 60 3.0 12.0 0.00 0.00 0.00 47 1010.2
20260506135312 58 80 6.0 11.0 0.00 0.00 0.00 49 1010.2
20260506133838 58 235 2.0 10.0 0.00 0.00 0.00 55 1010.3
20260506133312 59 15 6.0 12.0 0.00 0.00 0.00 54 1010.1
20260506131836 59 49 6.0 15.0 0.00 0.00 0.00 51 1010.1
20260506130836 59 98 4.0 10.0 0.00 0.00 0.00 53 1010.0
20260506125836 58 88 4.0 15.0 0.00 0.00 0.00 52 1009.9
20260506124836 58 135 5.0 13.0 0.00 0.00 0.00 55 1010.0
20260506123837 58 77 8.0 13.0 0.00 0.00 0.00 54 1010.0
20260506122836 58 96 4.0 14.0 0.00 0.00 0.00 56 1009.8
20260506121839 57 13 6.0 14.0 0.00 0.00 0.00 56 1009.9
20260506120837 58 17 5.0 15.0 0.00 0.00 0.00 57 1010.1
20260506115837 57 358 7.0 13.0 0.00 0.00 0.00 58 1009.9
20260506114836 57 77 6.0 12.0 0.00 0.00 0.00 59 1009.9
20260506114317 57 71 3.0 17.0 0.00 0.00 0.00 60 1009.8
20260506112836 57 357 10.0 15.0 0.00 0.00 0.00 61 1009.9
20260506112325 57 20 4.0 14.0 0.00 0.00 0.00 60 1010.0
20260506110836 57 34 4.0 14.0 0.00 0.00 0.00 62 1009.9
20260506105832 57 17 5.0 12.0 0.00 0.00 0.00 61 1009.8
20260506104834 56 92 8.0 14.0 0.00 0.00 0.00 60 1009.7
20260506104318 55 32 8.0 18.0 0.00 0.00 0.00 71 1009.7
20260506102833 56 21 7.0 14.0 0.00 0.00 0.00 76 1009.8
20260506100831 55 10 9.0 17.0 0.00 0.00 0.00 73 1009.8
20260506095831 56 104 2.0 15.0 0.00 0.00 0.00 72 1009.7
20260506094825 55 19 9.0 18.0 0.00 0.00 0.00 76 1009.4
20260506093822 55 37 3.0 17.0 0.00 0.00 0.00 79 1009.7
20260506092815 54 5 13.0 18.0 0.00 0.00 0.00 80 1009.5
20260506091814 55 3 7.0 17.0 0.00 0.00 0.00 80 1009.6
20260506090815 54 12 6.0 16.0 0.00 0.00 0.00 82 1009.5
20260506085814 54 12 6.0 16.0 0.00 0.00 0.00 82 1009.3
20260506084815 55 357 13.0 15.0 0.00 0.00 0.00 81 1009.4
20260506083815 54 328 2.0 12.0 0.00 0.00 0.00 81 1009.3
20260506082816 53 15 11.0 15.0 0.00 0.00 0.00 83 1009.3
20260506081815 54 34 2.0 12.0 0.00 0.00 0.00 84 1009.3
20260506080814 53 44 4.0 13.0 0.00 0.00 0.00 85 1009.3
20260506072814 52 2 7.0 16.0 0.00 0.00 0.00 88 1009.1
20260506071815 53 359 7.0 15.0 0.00 0.00 0.00 89 1009.2
20260506061814 51 38 5.0 15.0 0.00 0.00 0.00 89 1009.0
20260506051254 50 358 9.0 13.0 0.00 0.00 0.00 90 1008.8
20260506044814 49 11 8.0 13.0 0.00 0.00 0.00 90 1008.8
20260506043814 49 358 8.0 12.0 0.00 0.00 0.00 89 1008.9
20260506042814 49 5 7.0 13.0 0.00 0.00 0.00 89 1008.9
20260506041815 49 3 5.0 13.0 0.00 0.00 0.00 89 1009.0
20260506040814 49 2 7.0 12.0 0.00 0.00 0.00 88 1009.0
20260506035815 50 9 6.0 14.0 0.00 0.00 0.00 89 1009.0
20260506034814 50 18 6.0 13.0 0.00 0.00 0.00 88 1009.0
20260506033816 50 20 9.0 13.0 0.00 0.00 0.00 88 1009.0
20260506032814 50 5 8.0 14.0 0.00 0.00 0.00 87 1009.0
20260506031815 50 13 6.0 14.0 0.00 0.00 0.00 88 1009.2
20260506030806 50 7 11.0 15.0 0.00 0.00 0.00 87 1009.2
20260506030244 50 2 11.0 13.0 0.00 0.00 0.00 87 1009.3
20260506025240 50 20 7.0 13.0 0.00 0.00 0.00 88 1009.2
20260506023818 50 6 7.0 13.0 0.00 0.00 0.00 88 1009.2
20260506022805 50 7 8.0 11.0 0.00 0.00 0.00 88 1009.3
20260506021806 50 12 6.0 11.0 0.00 0.00 0.00 87 1009.4
20260506020818 50 13 8.0 13.0 0.00 0.00 0.00 87 1009.4
20260506015806 50 9 8.0 16.0 0.00 0.00 0.00 87 1009.4
20260506014805 50 8 8.0 14.0 0.00 0.00 0.00 87 1009.3
20260506013809 50 6 9.0 13.0 0.00 0.00 0.00 88 1009.4
20260506012805 50 2 7.0 14.0 0.00 0.00 0.00 87 1009.4
20260506011806 50 22 6.0 15.0 0.00 0.00 0.00 87 1009.6
20260506011244 49 19 5.0 12.0 0.00 0.00 0.00 88 1009.7
20260506005807 49 25 10.0 13.0 0.00 0.00 0.00 88 1009.7
20260506004805 49 9 8.0 12.0 0.00 0.00 0.00 88 1009.7
20260506003806 49 9 5.0 14.0 0.00 0.00 0.00 88 1010.0
20260506002805 49 7 8.0 13.0 0.00 0.00 0.00 88 1009.9
20260506001807 49 20 6.0 12.0 0.00 0.00 0.00 88 1010.0
20260506001255 49 2 8.0 12.0 0.00 0.00 0.00 88 1010.1
20260506000247 48 0 8.0 13.0 0.00 0.00 0.00 89 1010.2
20260505234805 49 18 7.0 13.0 0.00 0.00 0.00 89 1010.3
20260505233806 49 2 7.0 11.0 0.00 0.00 0.00 89 1010.3
20260505232806 49 13 8.0 13.0 0.00 0.00 0.00 89 1010.5
20260505231819 49 5 7.0 13.0 0.00 0.00 0.00 89 1010.6
20260505230806 49 22 5.0 15.0 0.00 0.00 0.00 89 1010.5
20260505225806 49 16 10.0 14.0 0.00 0.00 0.00 88 1010.4
20260505224806 49 5 9.0 15.0 0.00 0.00 0.00 87 1010.6